Location: Newark
(58.9986°N, 38.5006°E)
Time: 01:37:40
(UTC+00:00)

N. Korean satellite - Pass Details

Date: 11 December 2019
Orbit: 454 x 508 km, 97.2° (Epoch: 17 January)

Event Time Altitude Azimuth Distance (km) Brightness Sun altitude
Rises 15:14:40 0° 201° (SSW) 2,605 10.8 -19.0°
Reaches altitude 10° 15:17:07 10° 217° (SW) 1,720 10.0 -19.3°
Maximum altitude 15:20:02 22° 269° (W) 1,154 9.3 -19.7°
Drops below altitude 10° 15:22:57 10° 321° (NW) 1,715 9.7 -20.0°
Sets 15:25:24 0° 337° (NNW) 2,595 10.4 -20.4°
